Location: G�kdere
(37.0328°N, 30.9000°E)
Time: 21:41:29
(UTC+00:00)

Cosmos 2219 Rocket - Pass Details

Date: 03 March 2021
Orbit: 826 x 848 km, 71.0° (Epoch: 18 April)

Event Time Altitude Azimuth Distance (km) Brightness Sun altitude
Rises 17:38:32 0° 197° (SSW) 3,348 5.4 -21.9°
Reaches altitude 10° 17:40:57 10° 196° (SSW) 2,420 4.7 -22.4°
Maximum altitude 17:46:29 81° 111° (ESE) 843 2.0 -23.5°
Drops below altitude 10° 17:52:05 10° 24° (NNE) 2,443 4.5 -24.6°
Enters shadow 17:53:08 - 24° (NNE) 2,840 4.8 -24.8°
